Powrót do katalogu

STARLINK-36211

AktywnyŁącznośćVLEO
NORAD 67218·PAYLOAD·🇺🇸 United States

Wystrzelony Dec 17, 2025 z Vandenberg Space Force Base

Loading…

Następne Przeloty (najbliższe 24 godziny)

TLE

ŚwieżeSource: CelesTrak SupGP

Epoka: Sep 14, 2026, 21:15 UTC

1 67218C 25304AC  26257.88590278  .00028732  00000+0  24079-2 0  2579
2 67218  70.0016  57.3987 0002684 271.1907 136.3280 14.98317272    14

Śledź STARLINK-36211 w czasie rzeczywistym z AllMySat

Download on the App Store